Pardubice, Czech Republic

9:10 AM CEST on April 25, 2018 (GMT +0200)
Pardubice

Weather History for LKPD - November, 2013

Change the Weather History Date:

Saturday, November 9, 2013

  Actual Average Record
Temperature  
Mean Temperature 50 °F -  
Max Temperature 53 °F - - ()
Min Temperature 44 °F - - ()
Degree Days  
Heating Degree Days 16    
Moisture  
Dew Point 45 °F    
Average Humidity 82    
Maximum Humidity 94    
Minimum Humidity 71    
Precipitation  
Precipitation 0.00 in - - ()
Sea Level Pressure  
Sea Level Pressure 29.86 in    
Wind  
Wind Speed 7 mph ()    
Max Wind Speed 13 mph    
Max Gust Speed -    
Visibility 5.9 miles    
Events Rain    
T = Trace of Precipitation, MM = Missing Value Source: Averaged Metar Reports

Daily Weather History Graph

Daily Weather History Graph

Search for Another Location

Airport or City:

Astronomy

Nov. 09, 2013 Rise Set
Actual Time 7:00 AM CET 4:21 PM CET
Civil Twilight 6:25 AM CET 4:55 PM CET
Nautical Twilight 5:46 AM CET 5:34 PM CET
Astronomical Twilight 5:08 AM CET 6:12 PM CET
Moon 12:21 PM CET (11/9) 10:37 PM CET (11/9)
Length of Visible Light 10h 30m
Length of Day
9h 20m
Waxing Crescent, 41% of the Moon is Illuminated
Nov 9
Waxing Crescent
Nov 10
First Quarter
Nov 17
Full
Nov 25
Last Quarter
Dec 3
New

Hourly Weather History & Observations

Time (CET) Temp. Windchill Dew Point Humidity Pressure Visibility Wind Dir Wind Speed Gust Speed Precip Events Conditions
12:00 AM 53.6 °F - 46.4 °F 77% 29.77 in - ESE 8.1 mph - N/A   Clear
1:00 AM 53.6 °F - 44.6 °F 72% 29.77 in - ENE 8.1 mph - N/A   Clear
2:00 AM 51.8 °F - 48.2 °F 88% 29.77 in - East 8.1 mph - N/A   Clear
3:00 AM 51.8 °F - 48.2 °F 88% 29.77 in - East 6.9 mph - N/A   Clear
4:00 AM 50.0 °F - 46.4 °F 87% 29.77 in - ESE 4.6 mph - N/A   Clear
5:00 AM 51.8 °F - 48.2 °F 88% 29.77 in - East 5.8 mph - N/A   Clear
6:00 AM 51.8 °F - 48.2 °F 88% 29.83 in 6.2 mi West 5.8 mph - N/A   Mostly Cloudy
7:00 AM 53.6 °F - 48.2 °F 82% 29.83 in 6.2 mi West 12.7 mph - N/A Rain Light Rain
8:00 AM 50.0 °F - 48.2 °F 94% 29.89 in 3.7 mi WSW 6.9 mph - N/A Rain Light Rain
9:00 AM 51.8 °F - 48.2 °F 88% 29.89 in 6.2 mi SW 5.8 mph - N/A Rain Light Rain
10:00 AM 51.8 °F - 48.2 °F 88% 29.89 in 6.2 mi SW 8.1 mph - N/A Rain Light Rain
11:00 AM 51.8 °F - 48.2 °F 88% 29.89 in 6.2 mi WSW 10.4 mph - N/A   Overcast
12:00 PM 51.8 °F - 46.4 °F 82% 29.89 in 6.2 mi WSW 11.5 mph - N/A   Overcast
1:00 PM 51.8 °F - 46.4 °F 82% 29.89 in 6.2 mi WSW 12.7 mph - N/A   Overcast
2:00 PM 51.8 °F - 42.8 °F 71% 29.89 in 6.2 mi West 12.7 mph - N/A   Overcast
3:00 PM 50.0 °F - 42.8 °F 76% 29.92 in - West 12.7 mph - N/A   Clear
4:00 PM 48.2 °F - 42.8 °F 82% 29.92 in - WSW 9.2 mph - N/A   Clear
5:00 PM 46.4 °F 45.2 °F 41.0 °F 81% 29.92 in - SW 3.5 mph - N/A   Clear
6:00 PM 46.4 °F 45.2 °F 41.0 °F 81% 29.92 in - WSW 3.5 mph - N/A   Clear
7:00 PM 46.4 °F 45.2 °F 39.2 °F 76% 29.92 in - WSW 3.5 mph - N/A   Clear
8:00 PM 46.4 °F 42.9 °F 39.2 °F 76% 29.92 in - WSW 6.9 mph - N/A   Clear
9:00 PM 46.4 °F 43.5 °F 39.2 °F 76% 29.89 in - SW 5.8 mph - N/A   Clear
10:00 PM 46.4 °F 44.3 °F 39.2 °F 76% 29.89 in - WSW 4.6 mph - N/A   Clear
11:00 PM 44.6 °F 43.1 °F 37.4 °F 76% 29.89 in - West 3.5 mph - N/A   Clear